Home > Weather > Bamako > Past weeks

Flag for Mali Past Weather in Bamako, Mali — Yesterday and Last 2 Weeks

Now
81 °F

Passing clouds.


Feels Like: 86 °F
Forecast: N/A
Wind: 5 mph from Southeast

Location: Bamako / Senou

Current Time: Aug 29, 2016 at 7:51:38 PM

Latest Report: Aug 29, 2016 at 7:00 PM


Visibility: N/A

Pressure: 29.92 "Hg

Humidity: 84%

Dew Point: 75 °F

Location of BamakoLocation

Past Weather in Bamako — Graph

°F

Bamako Temperature Yesterday

Maximum temperature yesterday: 75 °F (at 9:00 AM)
Minimum temperature yesterday: 68 °F (at 11:00 AM)
Average temperature yesterday: 73 °F

High & Low Weather Summary for the Past Weeks

 TemperatureHumidityPressure
High91 °F (Aug 23, 1:30 PM)100% (Aug 14, 11:30 PM)30.09 "Hg (Aug 14, 11:30 PM)
Low68 °F (Aug 28, 11:00 AM)49% (Aug 25, 2:30 PM)29.83 "Hg (Aug 25, 4:00 PM)
Average78 °F89%29.95 "Hg
* Reported Aug 14 7:00 PM — Aug 29 7:00 PM, Bamako, Weather by CustomWeather, © 2016

Note: Actual official high and low records may vary slightly from our data, if they occured in-between our weather recording intervals... More about our weather records

Advertising

Bamako Weather History for the Previous 24 Hours

Scroll right to see more
 ConditionsComfort  
Time TempWeatherWind HumidityBarometerVisibility
7:00 PM
Mon, Aug 29
81 °FPassing clouds.5 mph84%29.92 "HgN/A
6:30 PM82 °FScattered clouds.2 mph84%29.92 "HgN/A
6:00 PM82 °FScattered clouds.3 mph84%29.92 "HgN/A
5:30 PM82 °FScattered clouds.3 mph84%29.92 "HgN/A
5:00 PM84 °FScattered clouds.6 mph70%29.92 "HgN/A
4:30 PM86 °FScattered clouds.7 mph62%29.89 "HgN/A
4:00 PM86 °FPartly sunny.7 mph62%29.92 "HgN/A
3:30 PM86 °FPartly sunny.8 mph62%29.89 "HgN/A
3:00 PM86 °FPartly sunny.7 mph66%29.89 "HgN/A
2:30 PM84 °FPartly sunny.9 mph74%29.92 "HgN/A
2:00 PM84 °FPartly sunny.8 mph66%29.92 "HgN/A
1:30 PM82 °FScattered clouds.6 mph74%29.95 "HgN/A
1:00 PM81 °FScattered clouds.6 mph79%29.98 "HgN/A
12:30 PM82 °FScattered clouds.7 mph74%29.98 "HgN/A
12:00 PM79 °FPartly sunny.10 mph89%29.98 "HgN/A
11:30 AM79 °FPartly sunny.5 mph84%29.98 "HgN/A
11:00 AM79 °FLight rain. Partly sunny.7 mph89%29.98 "HgN/A
10:30 AM79 °FPartly sunny.5 mph84%30.01 "HgN/A
10:00 AM77 °FPartly sunny.5 mph94%30.01 "HgN/A
9:30 AM77 °FScattered clouds.5 mph94%30.01 "HgN/A
9:00 AM75 °FScattered clouds.3 mph100%29.98 "HgN/A
8:30 AM75 °FScattered clouds.5 mph100%29.98 "HgN/A
8:00 AM73 °FBroken clouds.3 mph100%29.95 "HgN/A
7:30 AM73 °FPartly sunny.1 mph100%29.95 "HgN/A
7:00 AM72 °FPartly sunny.2 mph100%29.95 "HgN/A
6:30 AM73 °FScattered clouds.1 mph100%29.95 "HgN/A
6:00 AM73 °FPassing clouds.1 mph100%29.95 "HgN/A
5:30 AM73 °FPassing clouds.1 mph100%29.92 "HgN/A
5:00 AM72 °FPassing clouds.1 mph100%29.92 "HgN/A
4:30 AM72 °FPassing clouds.No wind100%29.92 "HgN/A
4:00 AM72 °FPassing clouds.No wind100%29.92 "HgN/A
3:30 AM72 °FPassing clouds.No wind100%29.92 "HgN/A
3:00 AM73 °FPassing clouds.1 mph100%29.95 "HgN/A
2:30 AM73 °FPassing clouds.3 mph100%29.95 "HgN/A
2:00 AM73 °FPassing clouds.6 mph100%29.95 "HgN/A
1:30 AM73 °FPassing clouds.5 mph100%29.95 "HgN/A
1:00 AM72 °FLight rain. Passing clouds.7 mph100%29.95 "HgN/A
12:30 AM72 °FLight rain. Partly cloudy.2 mph100%29.98 "HgN/A
12:00 AM73 °FLight rain. Partly cloudy.3 mph100%29.98 "HgN/A
11:30 PM
Sun, Aug 28
73 °FLight rain. Partly cloudy.1 mph100%29.98 "HgN/A
10:30 PM73 °FLight rain. Passing clouds.2 mph100%29.98 "HgN/A
10:00 PM73 °FLight rain. Passing clouds.No wind100%29.98 "HgN/A
9:30 PM73 °FLight rain. Passing clouds.3 mph100%29.95 "HgN/A
9:00 PM73 °FLight rain. Passing clouds.2 mph94%29.92 "HgN/A
8:30 PM73 °FLight rain. Passing clouds.2 mph100%29.95 "HgN/A
8:00 PM73 °FLight rain. Passing clouds.No wind100%29.92 "HgN/A
7:30 PM73 °FPassing clouds.No wind100%29.92 "HgN/A
7:00 PM73 °FPassing clouds.2 mph100%29.92 "HgN/A
Weather by CustomWeather, © 2016

See weather overviewHow to use our weather pages